International Virtual Aviation Organisation

Russian Federation and Kazakhstan MCD

 

Карточка аэропорта UATG

Внимание!
Информация на этой странице в стадии наполнения.
Если вы не увидели какой-то информации, или заметили неточность - пожалуйста сообщите нам!
Спасибо!
Команда RU-STAFF
Название аэропортаАтырау
Название аэропорта (англ.)Atyrau
Превышение-72 ft. (-21.9 m.)
Координаты47°7.332', 51°49.764'
Высота перехода1570
Эшелон переходаFL40
Коды ответчика3450-3457, 3560-3567
Зона ОрВДАктобе РПИ (UATT)
Данные METARUATG 170830Z 17003MPS 130V210 CAVOK 04/M05 Q1039 R14/CLRD70 NOSIG RMK QFE782/1042
Проноз погоды (TAF)UATG 170500Z 1706/1806 VRB03MPS 3100 BR BKN011 TX03/1710Z TNM07/1804Z BECMG 1708/1709 9999 NSW SCT033
NOTAMshow/hide NOTAM
AWOS   TABLE

Информация о ВПП

ВПП Длина ВПП (м.) Покрытие Курс ВПП Частота ILS
143000Асфальтобетон149109.9
323000Асфальтобетон329108.3

Диспетчерские позиции

Позывной Наименование органа УВД Частота
UATG_APPАтырау Подход123.7
UATG_TWRАтырау Вышка118.1



Спутниковое изображение